Retour au catalogue

STARLINK-3860

ActifCommunicationsVLEO
NORAD 52477·PAYLOAD·🇺🇸 United States

Lancé May 6, 2022 depuis Cape Canaveral Space Force Station

Loading…

Prochains Passages (prochaines 24 heures)

TLE

FraisSource: CelesTrak SupGP

Époque: Sep 15, 2026, 02:39 UTC

1 52477C 22049AC  26258.11090278 -.00010895  00000+0 -32183-3 0  2585
2 52477  53.1572 268.5619 0001292  93.9627 157.8800 15.34401197    12

Suivez STARLINK-3860 en temps réel avec AllMySat

Download on the App Store